Weather History for Florence, SC

Change the Weather History Date:

Monday, May 6, 2013

  Actual Average Record
Temperature  
Mean Temperature 66 °F 68 °F  
Max Temperature 76 °F 81 °F 97 °F (1952)
Min Temperature 56 °F 56 °F 45 °F (1987)
Degree Days  
Heating Degree Days 0 1  
Month to date heating degree days 8 10  
Since 1 July heating degree days 2319 2510  
Cooling Degree Days 1 5  
Month to date cooling degree days 1 26  
Year to date cooling degree days 96 122  
Growing Degree Days 16 (Base 50)    
Moisture  
Dew Point 57 °F    
Average Humidity 66    
Maximum Humidity 93    
Minimum Humidity 38    
Precipitation  
Precipitation 0.26 in 0.09 in 0.94 in (1984)
Month to date precipitation 0.58 0.53  
Year to date precipitation 14.55 12.63  
Sea Level Pressure  
Sea Level Pressure 29.86 in    
Wind  
Wind Speed 7 mph (South)    
Max Wind Speed 15 mph    
Max Gust Speed 20 mph    
Visibility 9 miles    
Events Rain    
T = Trace of Precipitation, MM = Missing Value Source: NWS Daily Summary

Daily Weather History Graph

Daily Weather History Graph

Search for Another Location

Airport:

Trip Planner

Search our weather history database for the weather conditions in past years. The results will help you decide how hot, cold, wet, or windy it might be!

Date:

Astronomy

May. 06, 2013 Rise Set
Actual Time 6:24 AM EDT 8:07 PM EDT
Civil Twilight 5:57 AM EDT 8:34 PM EDT
Nautical Twilight 5:24 AM EDT 9:07 PM EDT
Astronomical Twilight 4:50 AM EDT 9:41 PM EDT
Moon 4:16 AM EDT (5/6) 5:12 PM EDT (5/6)
Length of Visible Light 14h 37m
Length of Day
13h 42m
Waning Crescent, 11% of the Moon is Illuminated
May 6
Waning Crescent
May 9
New
May 18
First Quarter
May 25
Full
May 31
Last Quarter

Hourly Weather History & Observations

Time (EDT) Temp. Dew Point Humidity Pressure Visibility Wind Dir Wind Speed Gust Speed Precip Events Conditions
12:36 AM 62.6 °F 60.8 °F 94% 29.88 in 2.5 mi ESE 12.7 mph - 0.00 in Rain Heavy Rain
12:53 AM 63.0 °F 61.0 °F 93% 29.88 in 3.0 mi ESE 8.1 mph - 0.02 in Rain Rain
1:19 AM 62.6 °F 60.8 °F 94% 29.87 in 4.0 mi East 8.1 mph - 0.01 in Rain Light Rain
1:41 AM 62.6 °F 60.8 °F 94% 29.87 in 3.0 mi East 8.1 mph - 0.03 in Rain Rain
1:49 AM 62.6 °F 60.8 °F 94% 29.87 in 5.0 mi East 8.1 mph - 0.03 in Rain Light Rain
1:53 AM 63.0 °F 61.0 °F 93% 29.86 in 6.0 mi East 8.1 mph - 0.04 in Rain Light Rain
1:59 AM 62.6 °F 60.8 °F 94% 29.86 in 8.0 mi East 9.2 mph - 0.00 in Rain Light Rain
2:26 AM 62.6 °F 60.8 °F 94% 29.85 in 5.0 mi East 10.4 mph - 0.02 in Rain Light Rain
2:53 AM 62.1 °F 60.1 °F 93% 29.84 in 8.0 mi East 11.5 mph - 0.03 in Rain Light Rain
3:36 AM 62.6 °F 60.8 °F 94% 29.83 in 10.0 mi East 13.8 mph - 0.02 in Rain Light Rain
3:53 AM 63.0 °F 60.1 °F 90% 29.82 in 4.0 mi East 11.5 mph - 0.03 in Rain Rain
4:02 AM 62.6 °F 60.8 °F 94% 29.83 in 8.0 mi East 11.5 mph - 0.01 in Rain Light Rain
4:09 AM 62.6 °F 60.8 °F 94% 29.82 in 10.0 mi East 13.8 mph - 0.01 in Rain Light Rain
4:25 AM 62.6 °F 60.8 °F 94% 29.83 in 9.0 mi SE 8.1 mph - 0.02 in Rain Light Rain
4:53 AM 63.0 °F 61.0 °F 93% 29.83 in 10.0 mi SE 8.1 mph - 0.03 in   Overcast
5:00 AM 62.6 °F 60.8 °F 94% 29.84 in 10.0 mi ESE 6.9 mph - N/A   Overcast
5:16 AM 62.6 °F 60.8 °F 94% 29.84 in 10.0 mi SE 6.9 mph - 0.01 in   Overcast
5:36 AM 62.6 °F 60.8 °F 94% 29.84 in 10.0 mi Variable 3.5 mph - 0.01 in   Overcast
5:53 AM 63.0 °F 61.0 °F 93% 29.84 in 10.0 mi SE 4.6 mph - 0.02 in   Overcast
6:53 AM 63.0 °F 61.0 °F 93% 29.85 in 8.0 mi ESE 4.6 mph - 0.01 in   Overcast
7:53 AM 63.0 °F 61.0 °F 93% 29.87 in 10.0 mi SW 3.5 mph - 0.02 in   Overcast
8:23 AM 64.4 °F 60.8 °F 88% 29.88 in 10.0 mi SSW 4.6 mph - N/A   Overcast
8:53 AM 64.9 °F 60.1 °F 84% 29.88 in 10.0 mi WSW 4.6 mph - 0.01 in   Overcast
9:21 AM 66.2 °F 59.0 °F 78% 29.89 in 10.0 mi SSW 3.5 mph - 0.01 in   Scattered Clouds
9:36 AM 66.2 °F 59.0 °F 78% 29.89 in 10.0 mi West 3.5 mph - 0.01 in   Mostly Cloudy
9:53 AM 66.9 °F 57.9 °F 73% 29.88 in 10.0 mi Calm Calm - 0.01 in   Mostly Cloudy
10:02 AM 68.0 °F 57.2 °F 68% 29.89 in 10.0 mi West 3.5 mph - N/A   Scattered Clouds
10:13 AM 66.2 °F 59.0 °F 78% 29.89 in 10.0 mi SW 5.8 mph - 0.01 in   Mostly Cloudy
10:28 AM 66.2 °F 59.0 °F 78% 29.89 in 10.0 mi Calm Calm - 0.01 in   Mostly Cloudy
10:53 AM 70.0 °F 57.9 °F 65% 29.88 in 10.0 mi South 4.6 mph - 0.01 in   Clear
11:53 AM 70.0 °F 55.9 °F 61% 29.88 in 10.0 mi SSW 9.2 mph - 0.01 in   Mostly Cloudy
12:53 PM 73.9 °F 55.0 °F 52% 29.86 in 10.0 mi SW 8.1 mph - 0.01 in   Mostly Cloudy
1:53 PM 73.9 °F 53.1 °F 48% 29.85 in 10.0 mi WSW 8.1 mph - 0.01 in   Scattered Clouds
2:53 PM 73.0 °F 50.0 °F 44% 29.83 in 10.0 mi SSW 5.8 mph - 0.01 in   Scattered Clouds
3:53 PM 75.0 °F 52.0 °F 44% 29.81 in 10.0 mi SW 9.2 mph - N/A   Partly Cloudy
4:53 PM 75.0 °F 48.0 °F 38% 29.81 in 10.0 mi WSW 11.5 mph 17.3 mph 0.01 in   Partly Cloudy
5:53 PM 73.0 °F 46.0 °F 38% 29.82 in 10.0 mi WSW 9.2 mph - N/A   Clear
6:53 PM 71.1 °F 48.0 °F 44% 29.83 in 10.0 mi WSW 10.4 mph - N/A   Clear
7:53 PM 66.9 °F 48.9 °F 52% 29.85 in 10.0 mi WSW 10.4 mph - N/A   Clear
8:53 PM 62.1 °F 51.1 °F 67% 29.87 in 10.0 mi SW 3.5 mph - N/A   Clear
9:53 PM 57.0 °F 51.1 °F 81% 29.88 in 10.0 mi SW 4.6 mph - N/A   Clear
10:53 PM 57.0 °F 50.0 °F 77% 29.89 in 10.0 mi WSW 4.6 mph - N/A   Clear
11:53 PM 59.0 °F 48.9 °F 69% 29.90 in 10.0 mi West 8.1 mph - N/A   Clear